owner,sensor,date,latitude,longitude,vertical_datum,sea_water_temperature,qcFlag
BP,ioos:station:wmo:42880:1,2022-03-01T00:01:00Z,0.0000,0.0000,10.0,22.9,11111222
BP,ioos:station:wmo:42880:1,2022-03-01T00:11:00Z,0.0000,0.0000,10.0,22.9,11111222
BP,ioos:station:wmo:42880:1,2022-03-01T00:21:00Z,0.0000,0.0000,9.9,22.9,11111222
BP,ioos:station:wmo:42880:1,2022-03-01T00:31:00Z,0.0000,0.0000,9.9,22.9,11111222
BP,ioos:station:wmo:42880:1,2022-03-01T00:41:00Z,0.0000,0.0000,9.9,22.9,11111222
BP,ioos:station:wmo:42880:1,2022-03-01T00:51:00Z,0.0000,0.0000,9.9,22.9,11111222
BP,ioos:station:wmo:42880:1,2022-03-01T01:01:00Z,0.0000,0.0000,9.9,22.9,11111222
BP,ioos:station:wmo:42880:1,2022-03-01T01:11:00Z,0.0000,0.0000,9.9,22.9,11111222
BP,ioos:station:wmo:42880:1,2022-03-01T01:21:00Z,0.0000,0.0000,9.9,22.9,11111222
BP,ioos:station:wmo:42880:1,2022-03-01T01:31:00Z,0.0000,0.0000,9.9,22.9,11111222
BP,ioos:station:wmo:42880:1,2022-03-01T01:41:00Z,0.0000,0.0000,9.9,22.9,11111222
BP,ioos:station:wmo:42880:1,2022-03-01T01:51:00Z,0.0000,0.0000,9.9,22.9,11111222
BP,ioos:station:wmo:42880:1,2022-03-01T02:01:00Z,0.0000,0.0000,9.9,22.9,11111222
BP,ioos:station:wmo:42880:1,2022-03-01T02:11:00Z,0.0000,0.0000,9.9,22.9,11111222
BP,ioos:station:wmo:42880:1,2022-03-01T02:21:00Z,0.0000,0.0000,9.9,22.9,11111222
BP,ioos:station:wmo:42880:1,2022-03-01T02:31:00Z,0.0000,0.0000,9.9,22.9,11111222
BP,ioos:station:wmo:42880:1,2022-03-01T02:41:00Z,0.0000,0.0000,9.9,22.9,11111222
BP,ioos:station:wmo:42880:1,2022-03-01T02:51:00Z,0.0000,0.0000,9.9,22.9,11111222
BP,ioos:station:wmo:42880:1,2022-03-01T03:01:00Z,0.0000,0.0000,9.9,22.9,11111222
BP,ioos:station:wmo:42880:1,2022-03-01T03:11:00Z,0.0000,0.0000,10.0,22.9,11111222
BP,ioos:station:wmo:42880:1,2022-03-01T03:21:00Z,0.0000,0.0000,10.0,22.9,11111222
BP,ioos:station:wmo:42880:1,2022-03-01T03:31:00Z,0.0000,0.0000,9.9,22.9,11111222
BP,ioos:station:wmo:42880:1,2022-03-01T03:41:00Z,0.0000,0.0000,9.9,22.9,11111222
BP,ioos:station:wmo:42880:1,2022-03-01T03:51:00Z,0.0000,0.0000,9.9,22.9,11111222
BP,ioos:station:wmo:42880:1,2022-03-01T04:01:00Z,0.0000,0.0000,9.9,22.9,11111222
BP,ioos:station:wmo:42880:1,2022-03-01T04:11:00Z,0.0000,0.0000,9.9,22.9,11111222
BP,ioos:station:wmo:42880:1,2022-03-01T04:21:00Z,0.0000,0.0000,9.9,22.9,11111222
BP,ioos:station:wmo:42880:1,2022-03-01T04:31:00Z,0.0000,0.0000,9.9,22.8,11111222
BP,ioos:station:wmo:42880:1,2022-03-01T04:41:00Z,0.0000,0.0000,9.9,22.8,11111222
BP,ioos:station:wmo:42880:1,2022-03-01T04:51:00Z,0.0000,0.0000,10.0,22.8,11111222
BP,ioos:station:wmo:42880:1,2022-03-01T05:01:00Z,0.0000,0.0000,10.0,22.8,11111222
BP,ioos:station:wmo:42880:1,2022-03-01T05:11:00Z,0.0000,0.0000,10.0,22.8,11111222
BP,ioos:station:wmo:42880:1,2022-03-01T05:21:00Z,0.0000,0.0000,10.0,22.8,11111222
BP,ioos:station:wmo:42880:1,2022-03-01T05:31:00Z,0.0000,0.0000,10.0,22.8,11111222
BP,ioos:station:wmo:42880:1,2022-03-01T05:41:00Z,0.0000,0.0000,10.0,22.8,11111222
BP,ioos:station:wmo:42880:1,2022-03-01T05:51:00Z,0.0000,0.0000,10.0,22.8,11111222
BP,ioos:station:wmo:42880:1,2022-03-01T06:01:00Z,0.0000,0.0000,9.9,22.8,11111222
BP,ioos:station:wmo:42880:1,2022-03-01T06:11:00Z,0.0000,0.0000,10.0,22.8,11111222
BP,ioos:station:wmo:42880:1,2022-03-01T06:21:00Z,0.0000,0.0000,10.0,22.8,11111222
BP,ioos:station:wmo:42880:1,2022-03-01T06:31:00Z,0.0000,0.0000,10.0,22.8,11111222
BP,ioos:station:wmo:42880:1,2022-03-01T06:41:00Z,0.0000,0.0000,10.0,22.8,11111222
BP,ioos:station:wmo:42880:1,2022-03-01T06:51:00Z,0.0000,0.0000,10.0,22.8,11111222
BP,ioos:station:wmo:42880:1,2022-03-01T07:01:00Z,0.0000,0.0000,10.0,22.8,11111222
BP,ioos:station:wmo:42880:1,2022-03-01T07:11:00Z,0.0000,0.0000,10.0,22.8,11111222
BP,ioos:station:wmo:42880:1,2022-03-01T07:21:00Z,0.0000,0.0000,9.9,22.8,11111222
BP,ioos:station:wmo:42880:1,2022-03-01T07:31:00Z,0.0000,0.0000,9.9,22.8,11111222
BP,ioos:station:wmo:42880:1,2022-03-01T07:41:00Z,0.0000,0.0000,9.9,22.8,11111222
BP,ioos:station:wmo:42880:1,2022-03-01T07:51:00Z,0.0000,0.0000,9.9,22.8,11111222
BP,ioos:station:wmo:42880:1,2022-03-01T08:01:00Z,0.0000,0.0000,9.9,22.8,11111222
BP,ioos:station:wmo:42880:1,2022-03-01T08:11:00Z,0.0000,0.0000,9.9,22.8,11111222
BP,ioos:station:wmo:42880:1,2022-03-01T08:21:00Z,0.0000,0.0000,9.9,22.8,11111222
BP,ioos:station:wmo:42880:1,2022-03-01T08:31:00Z,0.0000,0.0000,9.9,22.8,11111222
BP,ioos:station:wmo:42880:1,2022-03-01T08:41:00Z,0.0000,0.0000,9.9,22.8,11111222
BP,ioos:station:wmo:42880:1,2022-03-01T08:51:00Z,0.0000,0.0000,9.9,22.8,11111222
BP,ioos:station:wmo:42880:1,2022-03-01T09:01:00Z,0.0000,0.0000,9.9,22.8,11111222
BP,ioos:station:wmo:42880:1,2022-03-01T09:11:00Z,0.0000,0.0000,10.0,22.8,11111222
BP,ioos:station:wmo:42880:1,2022-03-01T09:21:00Z,0.0000,0.0000,10.0,22.7,11111222
BP,ioos:station:wmo:42880:1,2022-03-01T09:32:00Z,0.0000,0.0000,9.9,22.8,11111222
BP,ioos:station:wmo:42880:1,2022-03-01T09:42:00Z,0.0000,0.0000,10.0,22.8,11111222
BP,ioos:station:wmo:42880:1,2022-03-01T09:52:00Z,0.0000,0.0000,9.9,22.8,11111222
BP,ioos:station:wmo:42880:1,2022-03-01T10:02:00Z,0.0000,0.0000,10.0,22.8,11111222
BP,ioos:station:wmo:42880:1,2022-03-01T10:12:00Z,0.0000,0.0000,10.0,22.7,11111222
BP,ioos:station:wmo:42880:1,2022-03-01T10:22:00Z,0.0000,0.0000,9.9,22.8,11111222
BP,ioos:station:wmo:42880:1,2022-03-01T10:32:00Z,0.0000,0.0000,10.0,22.8,11111222
BP,ioos:station:wmo:42880:1,2022-03-01T10:42:00Z,0.0000,0.0000,10.0,22.7,11111222
BP,ioos:station:wmo:42880:1,2022-03-01T10:52:00Z,0.0000,0.0000,10.0,22.7,11111222
BP,ioos:station:wmo:42880:1,2022-03-01T11:02:00Z,0.0000,0.0000,10.0,22.7,11111222
BP,ioos:station:wmo:42880:1,2022-03-01T11:12:00Z,0.0000,0.0000,10.0,22.8,11111222
BP,ioos:station:wmo:42880:1,2022-03-01T11:22:00Z,0.0000,0.0000,10.0,22.7,11111222
BP,ioos:station:wmo:42880:1,2022-03-01T11:32:00Z,0.0000,0.0000,10.0,22.7,11111222
BP,ioos:station:wmo:42880:1,2022-03-01T11:42:00Z,0.0000,0.0000,10.0,22.7,11111222
BP,ioos:station:wmo:42880:1,2022-03-01T11:52:00Z,0.0000,0.0000,9.9,22.8,11111222
BP,ioos:station:wmo:42880:1,2022-03-01T12:02:00Z,0.0000,0.0000,10.0,22.8,11111222
BP,ioos:station:wmo:42880:1,2022-03-01T12:12:00Z,0.0000,0.0000,9.9,22.8,11111222
BP,ioos:station:wmo:42880:1,2022-03-01T12:22:00Z,0.0000,0.0000,9.9,22.8,11111222
BP,ioos:station:wmo:42880:1,2022-03-01T12:32:00Z,0.0000,0.0000,9.9,22.7,11111222
BP,ioos:station:wmo:42880:1,2022-03-01T12:42:00Z,0.0000,0.0000,9.9,22.7,11111222
BP,ioos:station:wmo:42880:1,2022-03-01T12:52:00Z,0.0000,0.0000,9.9,22.7,11111222
BP,ioos:station:wmo:42880:1,2022-03-01T13:02:00Z,0.0000,0.0000,9.9,22.7,11111222
BP,ioos:station:wmo:42880:1,2022-03-01T13:12:00Z,0.0000,0.0000,9.9,22.7,11111222
BP,ioos:station:wmo:42880:1,2022-03-01T13:22:00Z,0.0000,0.0000,9.9,22.7,11111222
BP,ioos:station:wmo:42880:1,2022-03-01T13:32:00Z,0.0000,0.0000,10.0,22.7,11111222
BP,ioos:station:wmo:42880:1,2022-03-01T13:42:00Z,0.0000,0.0000,9.9,22.7,11111222
BP,ioos:station:wmo:42880:1,2022-03-01T13:52:00Z,0.0000,0.0000,9.9,22.7,11111222
BP,ioos:station:wmo:42880:1,2022-03-01T14:02:00Z,0.0000,0.0000,9.9,22.7,11111222
BP,ioos:station:wmo:42880:1,2022-03-01T14:12:00Z,0.0000,0.0000,9.9,22.7,11111222
BP,ioos:station:wmo:42880:1,2022-03-01T14:22:00Z,0.0000,0.0000,9.9,22.7,11111222
BP,ioos:station:wmo:42880:1,2022-03-01T14:32:00Z,0.0000,0.0000,10.0,22.7,11111222
BP,ioos:station:wmo:42880:1,2022-03-01T14:42:00Z,0.0000,0.0000,9.9,22.7,11111222
BP,ioos:station:wmo:42880:1,2022-03-01T14:52:00Z,0.0000,0.0000,9.9,22.7,11111222
BP,ioos:station:wmo:42880:1,2022-03-01T15:02:00Z,0.0000,0.0000,9.9,22.7,11111222
BP,ioos:station:wmo:42880:1,2022-03-01T15:12:00Z,0.0000,0.0000,10.0,22.7,11111222
BP,ioos:station:wmo:42880:1,2022-03-01T15:22:00Z,0.0000,0.0000,10.0,22.7,11111222
BP,ioos:station:wmo:42880:1,2022-03-01T15:32:00Z,0.0000,0.0000,10.0,22.7,11111222
BP,ioos:station:wmo:42880:1,2022-03-01T15:42:00Z,0.0000,0.0000,10.0,22.7,11111222
BP,ioos:station:wmo:42880:1,2022-03-01T15:52:00Z,0.0000,0.0000,10.0,22.7,11111222
BP,ioos:station:wmo:42880:1,2022-03-01T16:02:00Z,0.0000,0.0000,10.0,22.7,11111222
BP,ioos:station:wmo:42880:1,2022-03-01T16:12:00Z,0.0000,0.0000,10.0,22.7,11111222
BP,ioos:station:wmo:42880:1,2022-03-01T16:22:00Z,0.0000,0.0000,9.9,22.7,11111222
BP,ioos:station:wmo:42880:1,2022-03-01T16:32:00Z,0.0000,0.0000,9.9,22.7,11111222
BP,ioos:station:wmo:42880:1,2022-03-01T16:42:00Z,0.0000,0.0000,9.9,22.7,11111222
BP,ioos:station:wmo:42880:1,2022-03-01T16:52:00Z,0.0000,0.0000,9.9,22.7,11111222
BP,ioos:station:wmo:42880:1,2022-03-01T17:02:00Z,0.0000,0.0000,9.9,22.7,11111222
BP,ioos:station:wmo:42880:1,2022-03-01T17:12:00Z,0.0000,0.0000,9.9,22.7,11111222
BP,ioos:station:wmo:42880:1,2022-03-01T17:22:00Z,0.0000,0.0000,9.9,22.7,11111222
BP,ioos:station:wmo:42880:1,2022-03-01T17:32:00Z,0.0000,0.0000,10.1,22.7,11111222
BP,ioos:station:wmo:42880:1,2022-03-01T17:42:00Z,0.0000,0.0000,10.1,22.7,11111222
BP,ioos:station:wmo:42880:1,2022-03-01T17:52:00Z,0.0000,0.0000,10.1,22.7,11111222
BP,ioos:station:wmo:42880:1,2022-03-01T18:02:00Z,0.0000,0.0000,10.1,22.6,11111222
BP,ioos:station:wmo:42880:1,2022-03-01T18:12:00Z,0.0000,0.0000,10.1,22.7,11111222
BP,ioos:station:wmo:42880:1,2022-03-01T18:22:00Z,0.0000,0.0000,10.1,22.7,11111222
BP,ioos:station:wmo:42880:1,2022-03-01T18:32:00Z,0.0000,0.0000,10.1,22.6,11111222
BP,ioos:station:wmo:42880:1,2022-03-01T18:42:00Z,0.0000,0.0000,10.0,22.6,11111222
BP,ioos:station:wmo:42880:1,2022-03-01T18:52:00Z,0.0000,0.0000,10.0,22.7,11111222
BP,ioos:station:wmo:42880:1,2022-03-01T19:03:00Z,0.0000,0.0000,10.0,22.7,11111222
BP,ioos:station:wmo:42880:1,2022-03-01T19:13:00Z,0.0000,0.0000,10.0,22.7,11111222
BP,ioos:station:wmo:42880:1,2022-03-01T19:23:00Z,0.0000,0.0000,10.0,22.7,11111222
BP,ioos:station:wmo:42880:1,2022-03-01T19:33:00Z,0.0000,0.0000,10.0,22.7,11111222
BP,ioos:station:wmo:42880:1,2022-03-01T19:43:00Z,0.0000,0.0000,10.1,22.7,11111222
BP,ioos:station:wmo:42880:1,2022-03-01T19:53:00Z,0.0000,0.0000,10.1,22.7,11111222
BP,ioos:station:wmo:42880:1,2022-03-01T20:03:00Z,0.0000,0.0000,10.1,22.7,11111222
BP,ioos:station:wmo:42880:1,2022-03-01T20:13:00Z,0.0000,0.0000,10.0,22.7,11111222
BP,ioos:station:wmo:42880:1,2022-03-01T20:23:00Z,0.0000,0.0000,10.0,22.7,11111222
BP,ioos:station:wmo:42880:1,2022-03-01T20:33:00Z,0.0000,0.0000,10.1,22.7,11111222
BP,ioos:station:wmo:42880:1,2022-03-01T20:43:00Z,0.0000,0.0000,10.1,22.7,11111222
BP,ioos:station:wmo:42880:1,2022-03-01T20:53:00Z,0.0000,0.0000,10.1,22.7,11111222
BP,ioos:station:wmo:42880:1,2022-03-01T21:03:00Z,0.0000,0.0000,10.1,22.7,11111222
BP,ioos:station:wmo:42880:1,2022-03-01T21:13:00Z,0.0000,0.0000,10.1,22.7,11111222
BP,ioos:station:wmo:42880:1,2022-03-01T21:23:00Z,0.0000,0.0000,10.1,22.7,11111222
BP,ioos:station:wmo:42880:1,2022-03-01T21:33:00Z,0.0000,0.0000,10.1,22.7,11111222
BP,ioos:station:wmo:42880:1,2022-03-01T21:43:00Z,0.0000,0.0000,10.0,22.7,11111222
BP,ioos:station:wmo:42880:1,2022-03-01T21:53:00Z,0.0000,0.0000,10.1,22.7,11111222
BP,ioos:station:wmo:42880:1,2022-03-01T22:03:00Z,0.0000,0.0000,10.1,22.7,11111222
BP,ioos:station:wmo:42880:1,2022-03-01T22:13:00Z,0.0000,0.0000,10.1,22.7,11111222
BP,ioos:station:wmo:42880:1,2022-03-01T22:23:00Z,0.0000,0.0000,10.1,22.7,11111222
BP,ioos:station:wmo:42880:1,2022-03-01T22:33:00Z,0.0000,0.0000,10.1,22.7,11111222
BP,ioos:station:wmo:42880:1,2022-03-01T22:43:00Z,0.0000,0.0000,10.1,22.7,11111222
BP,ioos:station:wmo:42880:1,2022-03-01T22:53:00Z,0.0000,0.0000,10.1,22.7,11111222
BP,ioos:station:wmo:42880:1,2022-03-03T02:40:00Z,0.0000,0.0000,7.9,22.6,11111222
BP,ioos:station:wmo:42880:1,2022-03-03T02:50:00Z,0.0000,0.0000,7.9,22.6,11111222
BP,ioos:station:wmo:42880:1,2022-03-03T03:00:00Z,0.0000,0.0000,7.9,22.7,11111222
BP,ioos:station:wmo:42880:1,2022-03-03T03:10:00Z,0.0000,0.0000,7.9,22.7,11111222
BP,ioos:station:wmo:42880:1,2022-03-03T03:20:00Z,0.0000,0.0000,7.9,22.7,11111222
BP,ioos:station:wmo:42880:1,2022-03-03T03:30:00Z,0.0000,0.0000,7.9,22.7,11111222
BP,ioos:station:wmo:42880:1,2022-03-03T03:40:00Z,0.0000,0.0000,7.9,22.7,11111222
BP,ioos:station:wmo:42880:1,2022-03-03T03:50:00Z,0.0000,0.0000,7.9,22.6,11111222
BP,ioos:station:wmo:42880:1,2022-03-03T04:00:00Z,0.0000,0.0000,7.9,22.6,11111222
BP,ioos:station:wmo:42880:1,2022-03-03T04:10:00Z,0.0000,0.0000,7.9,22.6,11111222
BP,ioos:station:wmo:42880:1,2022-03-03T04:20:00Z,0.0000,0.0000,7.9,22.6,11111222
BP,ioos:station:wmo:42880:1,2022-03-03T04:30:00Z,0.0000,0.0000,7.9,22.6,11111222
BP,ioos:station:wmo:42880:1,2022-03-03T04:40:00Z,0.0000,0.0000,7.9,22.6,11111222
BP,ioos:station:wmo:42880:1,2022-03-03T04:50:00Z,0.0000,0.0000,7.9,22.6,11111222
BP,ioos:station:wmo:42880:1,2022-03-03T05:00:00Z,0.0000,0.0000,7.9,22.6,11111222
BP,ioos:station:wmo:42880:1,2022-03-03T05:10:00Z,0.0000,0.0000,7.9,22.6,11111222
BP,ioos:station:wmo:42880:1,2022-03-03T05:20:00Z,0.0000,0.0000,7.9,22.6,11111222
BP,ioos:station:wmo:42880:1,2022-03-03T05:30:00Z,0.0000,0.0000,7.9,22.6,11111222
BP,ioos:station:wmo:42880:1,2022-03-03T05:40:00Z,0.0000,0.0000,7.9,22.6,11111222
BP,ioos:station:wmo:42880:1,2022-03-03T05:50:00Z,0.0000,0.0000,7.9,22.6,11111222
BP,ioos:station:wmo:42880:1,2022-03-03T06:00:00Z,0.0000,0.0000,7.9,22.6,11111222
BP,ioos:station:wmo:42880:1,2022-03-03T06:10:00Z,0.0000,0.0000,7.9,22.6,11111222
BP,ioos:station:wmo:42880:1,2022-03-03T06:20:00Z,0.0000,0.0000,7.9,22.6,11111222
BP,ioos:station:wmo:42880:1,2022-03-03T06:30:00Z,0.0000,0.0000,7.9,22.6,11111222
BP,ioos:station:wmo:42880:1,2022-03-03T06:40:00Z,0.0000,0.0000,7.9,22.6,11111222
BP,ioos:station:wmo:42880:1,2022-03-03T06:50:00Z,0.0000,0.0000,7.8,22.6,11111222
BP,ioos:station:wmo:42880:1,2022-03-03T07:00:00Z,0.0000,0.0000,7.9,22.6,11111222
BP,ioos:station:wmo:42880:1,2022-03-03T07:10:00Z,0.0000,0.0000,7.9,22.6,11111222
BP,ioos:station:wmo:42880:1,2022-03-03T07:20:00Z,0.0000,0.0000,7.8,22.6,11111222
BP,ioos:station:wmo:42880:1,2022-03-03T07:30:00Z,0.0000,0.0000,7.8,22.6,11111222
BP,ioos:station:wmo:42880:1,2022-03-03T07:40:00Z,0.0000,0.0000,7.8,22.6,11111222
BP,ioos:station:wmo:42880:1,2022-03-03T07:50:00Z,0.0000,0.0000,7.8,22.6,11111222
BP,ioos:station:wmo:42880:1,2022-03-03T08:00:00Z,0.0000,0.0000,7.9,22.6,11111222
BP,ioos:station:wmo:42880:1,2022-03-03T08:10:00Z,0.0000,0.0000,7.9,22.6,11111222
BP,ioos:station:wmo:42880:1,2022-03-03T08:20:00Z,0.0000,0.0000,8.0,22.6,11111222
BP,ioos:station:wmo:42880:1,2022-03-03T08:30:00Z,0.0000,0.0000,8.0,22.6,11111222
BP,ioos:station:wmo:42880:1,2022-03-03T08:40:00Z,0.0000,0.0000,8.0,22.6,11111222
BP,ioos:station:wmo:42880:1,2022-03-03T08:50:00Z,0.0000,0.0000,7.9,22.6,11111222
BP,ioos:station:wmo:42880:1,2022-03-03T09:00:00Z,0.0000,0.0000,7.9,22.6,11111222
BP,ioos:station:wmo:42880:1,2022-03-03T09:10:00Z,0.0000,0.0000,7.9,22.6,11111222
BP,ioos:station:wmo:42880:1,2022-03-03T09:20:00Z,0.0000,0.0000,7.9,22.6,11111222
BP,ioos:station:wmo:42880:1,2022-03-03T09:30:00Z,0.0000,0.0000,7.9,22.6,11111222
BP,ioos:station:wmo:42880:1,2022-03-03T09:40:00Z,0.0000,0.0000,7.9,22.6,11111222
BP,ioos:station:wmo:42880:1,2022-03-03T09:50:00Z,0.0000,0.0000,7.9,22.6,11111222
BP,ioos:station:wmo:42880:1,2022-03-03T10:00:00Z,0.0000,0.0000,7.9,22.6,11111222
BP,ioos:station:wmo:42880:1,2022-03-03T10:10:00Z,0.0000,0.0000,7.9,22.6,11111222
BP,ioos:station:wmo:42880:1,2022-03-03T10:21:00Z,0.0000,0.0000,7.9,22.6,11111222
BP,ioos:station:wmo:42880:1,2022-03-03T10:31:00Z,0.0000,0.0000,7.8,22.6,11111222
BP,ioos:station:wmo:42880:1,2022-03-03T10:41:00Z,0.0000,0.0000,7.8,22.6,11111222
BP,ioos:station:wmo:42880:1,2022-03-03T10:51:00Z,0.0000,0.0000,7.8,22.6,11111222
BP,ioos:station:wmo:42880:1,2022-03-03T11:01:00Z,0.0000,0.0000,7.8,22.6,11111222
BP,ioos:station:wmo:42880:1,2022-03-03T11:11:00Z,0.0000,0.0000,7.8,22.6,11111222
BP,ioos:station:wmo:42880:1,2022-03-03T11:21:00Z,0.0000,0.0000,7.8,22.6,11111222
BP,ioos:station:wmo:42880:1,2022-03-03T11:31:00Z,0.0000,0.0000,7.9,22.6,11111222
BP,ioos:station:wmo:42880:1,2022-03-03T11:41:00Z,0.0000,0.0000,7.9,22.6,11111222
BP,ioos:station:wmo:42880:1,2022-03-03T11:51:00Z,0.0000,0.0000,7.9,22.6,11111222
BP,ioos:station:wmo:42880:1,2022-03-03T12:01:00Z,0.0000,0.0000,7.9,22.6,11111222
BP,ioos:station:wmo:42880:1,2022-03-03T12:11:00Z,0.0000,0.0000,7.9,22.6,11111222
BP,ioos:station:wmo:42880:1,2022-03-03T12:21:00Z,0.0000,0.0000,7.9,22.6,11111222
BP,ioos:station:wmo:42880:1,2022-03-03T12:31:00Z,0.0000,0.0000,7.9,22.6,11111222
BP,ioos:station:wmo:42880:1,2022-03-03T12:41:00Z,0.0000,0.0000,7.9,22.6,11111222
BP,ioos:station:wmo:42880:1,2022-03-03T12:51:00Z,0.0000,0.0000,7.9,22.6,11111222
BP,ioos:station:wmo:42880:1,2022-03-03T13:01:00Z,0.0000,0.0000,7.9,22.6,11111222
BP,ioos:station:wmo:42880:1,2022-03-03T13:11:00Z,0.0000,0.0000,7.9,22.6,11111222
BP,ioos:station:wmo:42880:1,2022-03-03T13:21:00Z,0.0000,0.0000,7.9,22.6,11111222
BP,ioos:station:wmo:42880:1,2022-03-03T13:31:00Z,0.0000,0.0000,7.9,22.6,11111222
BP,ioos:station:wmo:42880:1,2022-03-03T13:41:00Z,0.0000,0.0000,8.0,22.6,11111222
BP,ioos:station:wmo:42880:1,2022-03-03T13:51:00Z,0.0000,0.0000,7.9,22.6,11111222
BP,ioos:station:wmo:42880:1,2022-03-03T14:01:00Z,0.0000,0.0000,7.9,22.6,11111222
BP,ioos:station:wmo:42880:1,2022-03-03T14:11:00Z,0.0000,0.0000,7.9,22.6,11111222
BP,ioos:station:wmo:42880:1,2022-03-03T14:21:00Z,0.0000,0.0000,7.9,22.6,11111222
BP,ioos:station:wmo:42880:1,2022-03-03T14:31:00Z,0.0000,0.0000,7.9,22.6,11111222
BP,ioos:station:wmo:42880:1,2022-03-03T14:41:00Z,0.0000,0.0000,7.9,22.6,11111222
BP,ioos:station:wmo:42880:1,2022-03-03T14:51:00Z,0.0000,0.0000,7.9,22.6,11111222
BP,ioos:station:wmo:42880:1,2022-03-03T15:01:00Z,0.0000,0.0000,7.9,22.6,11111222
BP,ioos:station:wmo:42880:1,2022-03-03T15:11:00Z,0.0000,0.0000,8.0,22.6,11111222
BP,ioos:station:wmo:42880:1,2022-03-03T15:21:00Z,0.0000,0.0000,7.9,22.6,11111222
BP,ioos:station:wmo:42880:1,2022-03-03T15:31:00Z,0.0000,0.0000,8.0,22.6,11111222
BP,ioos:station:wmo:42880:1,2022-03-03T15:41:00Z,0.0000,0.0000,8.0,22.6,11111222
BP,ioos:station:wmo:42880:1,2022-03-03T15:51:00Z,0.0000,0.0000,8.0,22.6,11111222
BP,ioos:station:wmo:42880:1,2022-03-03T16:01:00Z,0.0000,0.0000,8.0,22.6,11111222
BP,ioos:station:wmo:42880:1,2022-03-03T16:11:00Z,0.0000,0.0000,8.0,22.6,11111222
BP,ioos:station:wmo:42880:1,2022-03-03T16:22:00Z,0.0000,0.0000,8.0,22.6,11111222
BP,ioos:station:wmo:42880:1,2022-03-03T16:32:00Z,0.0000,0.0000,8.0,22.6,11111222
BP,ioos:station:wmo:42880:1,2022-03-03T16:42:00Z,0.0000,0.0000,8.0,22.6,11111222
BP,ioos:station:wmo:42880:1,2022-03-03T16:52:00Z,0.0000,0.0000,8.0,22.6,11111222
BP,ioos:station:wmo:42880:1,2022-03-03T17:02:00Z,0.0000,0.0000,8.0,22.6,11111222
BP,ioos:station:wmo:42880:1,2022-03-03T17:12:00Z,0.0000,0.0000,7.9,22.6,11111222
BP,ioos:station:wmo:42880:1,2022-03-03T17:22:00Z,0.0000,0.0000,7.9,22.6,11111222
BP,ioos:station:wmo:42880:1,2022-03-03T17:32:00Z,0.0000,0.0000,7.9,22.7,11111222
BP,ioos:station:wmo:42880:1,2022-03-03T17:42:00Z,0.0000,0.0000,7.9,22.7,11111222
BP,ioos:station:wmo:42880:1,2022-03-03T17:52:00Z,0.0000,0.0000,7.9,22.7,11111222
BP,ioos:station:wmo:42880:1,2022-03-03T18:02:00Z,0.0000,0.0000,7.9,22.7,11111222
BP,ioos:station:wmo:42880:1,2022-03-03T18:12:00Z,0.0000,0.0000,7.9,22.7,11111222
BP,ioos:station:wmo:42880:1,2022-03-03T18:22:00Z,0.0000,0.0000,7.9,22.7,11111222
BP,ioos:station:wmo:42880:1,2022-03-03T18:32:00Z,0.0000,0.0000,7.9,22.6,11111222
BP,ioos:station:wmo:42880:1,2022-03-03T18:42:00Z,0.0000,0.0000,7.9,22.6,11111222
BP,ioos:station:wmo:42880:1,2022-03-03T18:52:00Z,0.0000,0.0000,7.9,22.6,11111222
BP,ioos:station:wmo:42880:1,2022-03-03T19:02:00Z,0.0000,0.0000,7.9,22.6,11111222
BP,ioos:station:wmo:42880:1,2022-03-03T19:12:00Z,0.0000,0.0000,7.9,22.6,11111222
BP,ioos:station:wmo:42880:1,2022-03-03T19:22:00Z,0.0000,0.0000,7.9,22.6,11111222
BP,ioos:station:wmo:42880:1,2022-03-03T19:32:00Z,0.0000,0.0000,7.9,22.6,11111222
BP,ioos:station:wmo:42880:1,2022-03-03T19:42:00Z,0.0000,0.0000,7.9,22.6,11111222
BP,ioos:station:wmo:42880:1,2022-03-03T19:52:00Z,0.0000,0.0000,7.9,22.6,11111222
BP,ioos:station:wmo:42880:1,2022-03-03T20:02:00Z,0.0000,0.0000,7.9,22.6,11111222
BP,ioos:station:wmo:42880:1,2022-03-03T20:12:00Z,0.0000,0.0000,7.9,22.6,11111222
BP,ioos:station:wmo:42880:1,2022-03-03T20:22:00Z,0.0000,0.0000,7.9,22.6,11111222
BP,ioos:station:wmo:42880:1,2022-03-03T20:32:00Z,0.0000,0.0000,7.9,22.6,11111222
BP,ioos:station:wmo:42880:1,2022-03-03T20:42:00Z,0.0000,0.0000,7.9,22.6,11111222
BP,ioos:station:wmo:42880:1,2022-03-03T20:52:00Z,0.0000,0.0000,7.9,22.6,11111222
BP,ioos:station:wmo:42880:1,2022-03-03T21:03:00Z,0.0000,0.0000,7.9,22.6,11111222
BP,ioos:station:wmo:42880:1,2022-03-03T21:13:00Z,0.0000,0.0000,7.9,22.6,11111222
BP,ioos:station:wmo:42880:1,2022-03-03T21:23:00Z,0.0000,0.0000,7.9,22.6,11111222
BP,ioos:station:wmo:42880:1,2022-03-03T21:33:00Z,0.0000,0.0000,7.9,22.6,11111222
BP,ioos:station:wmo:42880:1,2022-03-03T21:43:00Z,0.0000,0.0000,7.9,22.7,11111222
BP,ioos:station:wmo:42880:1,2022-03-03T21:53:00Z,0.0000,0.0000,7.9,22.6,11111222
BP,ioos:station:wmo:42880:1,2022-03-03T22:03:00Z,0.0000,0.0000,7.9,22.6,11111222
BP,ioos:station:wmo:42880:1,2022-03-03T22:13:00Z,0.0000,0.0000,7.9,22.6,11111222
BP,ioos:station:wmo:42880:1,2022-03-03T22:23:00Z,0.0000,0.0000,7.9,22.6,11111222
BP,ioos:station:wmo:42880:1,2022-03-03T22:33:00Z,0.0000,0.0000,7.9,22.6,11111222
BP,ioos:station:wmo:42880:1,2022-03-03T22:43:00Z,0.0000,0.0000,7.9,22.6,11111222
BP,ioos:station:wmo:42880:1,2022-03-03T22:53:00Z,0.0000,0.0000,7.8,22.6,11111222
BP,ioos:station:wmo:42880:1,2022-03-03T23:03:00Z,0.0000,0.0000,7.8,22.6,11111222
BP,ioos:station:wmo:42880:1,2022-03-03T23:13:00Z,0.0000,0.0000,7.8,22.6,11111222
BP,ioos:station:wmo:42880:1,2022-03-03T23:23:00Z,0.0000,0.0000,7.7,22.6,11111222
BP,ioos:station:wmo:42880:1,2022-03-03T23:33:00Z,0.0000,0.0000,7.9,22.6,11111222
BP,ioos:station:wmo:42880:1,2022-03-03T23:43:00Z,0.0000,0.0000,7.9,22.6,11111222
BP,ioos:station:wmo:42880:1,2022-03-03T23:53:00Z,0.0000,0.0000,7.9,22.6,11111222
BP,ioos:station:wmo:42880:1,2022-03-04T00:03:00Z,0.0000,0.0000,8.0,22.6,11111222
BP,ioos:station:wmo:42880:1,2022-03-04T00:13:00Z,0.0000,0.0000,8.0,22.6,11111222
BP,ioos:station:wmo:42880:1,2022-03-04T00:23:00Z,0.0000,0.0000,8.0,22.6,11111222
BP,ioos:station:wmo:42880:1,2022-03-04T00:33:00Z,0.0000,0.0000,8.0,22.6,11111222
BP,ioos:station:wmo:42880:1,2022-03-04T00:43:00Z,0.0000,0.0000,8.0,22.6,11111222
BP,ioos:station:wmo:42880:1,2022-03-04T00:53:00Z,0.0000,0.0000,8.0,22.6,11111222
BP,ioos:station:wmo:42880:1,2022-03-04T01:03:00Z,0.0000,0.0000,8.0,22.6,11111222
BP,ioos:station:wmo:42880:1,2022-03-04T01:13:00Z,0.0000,0.0000,8.0,22.6,11111222
BP,ioos:station:wmo:42880:1,2022-03-04T01:23:00Z,0.0000,0.0000,8.0,22.6,11111222
BP,ioos:station:wmo:42880:1,2022-03-04T01:33:00Z,0.0000,0.0000,8.0,22.6,11111222
BP,ioos:station:wmo:42880:1,2022-03-04T01:43:00Z,0.0000,0.0000,8.0,22.6,11111222
BP,ioos:station:wmo:42880:1,2022-03-04T01:53:00Z,0.0000,0.0000,7.9,22.6,11111222
BP,ioos:station:wmo:42880:1,2022-03-04T02:03:00Z,0.0000,0.0000,8.0,22.6,11111222
BP,ioos:station:wmo:42880:1,2022-03-04T02:13:00Z,0.0000,0.0000,7.9,22.6,11111222
BP,ioos:station:wmo:42880:1,2022-03-04T02:23:00Z,0.0000,0.0000,8.0,22.6,11111222
BP,ioos:station:wmo:42880:1,2022-03-04T02:33:00Z,0.0000,0.0000,8.0,22.6,11111222
BP,ioos:station:wmo:42880:1,2022-03-04T02:43:00Z,0.0000,0.0000,8.0,22.6,11111222
BP,ioos:station:wmo:42880:1,2022-03-04T02:53:00Z,0.0000,0.0000,8.1,22.6,11111222
BP,ioos:station:wmo:42880:1,2022-03-04T03:03:00Z,0.0000,0.0000,8.0,22.6,11111222
BP,ioos:station:wmo:42880:1,2022-03-04T03:13:00Z,0.0000,0.0000,7.9,22.6,11111222
BP,ioos:station:wmo:42880:1,2022-03-04T03:23:00Z,0.0000,0.0000,7.8,22.6,11111222
BP,ioos:station:wmo:42880:1,2022-03-04T03:33:00Z,0.0000,0.0000,7.9,22.6,11111222
BP,ioos:station:wmo:42880:1,2022-03-04T03:43:00Z,0.0000,0.0000,7.8,22.6,11111222
BP,ioos:station:wmo:42880:1,2022-03-04T03:53:00Z,0.0000,0.0000,7.8,22.6,11111222